Date String (YYYY-MM-DD hh:mm:ss) UTC,Instrument flags,absolute air pressure of the measurement (hPa),sample flow rate (lpm),inlet stack bypass flow (lpm),air temperature of the measurement (°C),ambient temperature measured by the external sensor (°C),aerosol sample conditioner tube jacket temperature (°C),OPC LED temperature (°C),internal box temperature (°C),relative humidity of the measurement (%),span deviation,mass concentration of particles derived from Lorenz-Mie calculation of OPC scattering (μg/m³),mass concentration of particles derived from Lorenz-Mie calculation of OPC scattering (μg/m³),mass concentration of particles derived from Lorenz-Mie calculation of OPC scattering (μg/m³)
DateTimeUTC,F1_M11,P_M11,Q1_M11,Q2_M11,T1_M11,T2_M11,T3_M11,T4_M11,T5_M11,U1_M11,ZSPAN_M11,X0_M11,X2_M11,X1_M11
2024-05-14 06:00:00,SystemResetWarning,0825.8,4.99,000.00,025.2,024.8,000.0,033.1,027.0,018.5,0000.0,0007.17,0003.19,0002.86
2024-05-14 06:01:00,SystemResetWarning,0825.9,5.01,000.00,025.2,024.8,000.0,033.2,027.0,017.9,0000.0,0006.59,0003.18,0002.87
2024-05-14 06:02:00,SystemResetWarning,0825.9,5.00,000.00,025.2,024.3,000.0,033.2,026.8,018.1,0000.0,0005.16,0003.16,0002.85
2024-05-14 06:03:00,SystemResetWarning,0825.8,5.00,000.00,024.9,022.3,000.0,033.3,025.8,018.3,0000.0,0004.62,0003.13,0002.82
2024-05-14 06:04:00,SystemResetWarning,0825.8,5.02,000.00,024.6,021.7,000.0,033.3,025.4,018.6,0000.0,0004.49,0003.11,0002.79
2024-05-14 06:05:00,SystemResetWarning,0825.8,5.00,000.00,024.4,022.0,000.0,033.2,025.4,019.1,0000.0,0004.45,0003.09,0002.76
2024-05-14 06:06:00,SystemResetWarning,0825.9,5.00,000.00,024.4,022.4,000.0,033.1,025.6,019.0,0000.0,0003.97,0003.05,0002.72
2024-05-14 06:07:00,SystemResetWarning,0825.9,4.98,000.00,024.4,022.7,000.0,033.0,025.9,019.0,0000.0,0003.66,0003.02,0002.69
2024-05-14 06:08:00,SystemResetWarning,0825.9,5.01,000.00,024.5,023.0,000.0,032.9,026.0,019.0,0000.0,0003.70,0003.02,0002.68
2024-05-14 06:09:00,SystemResetWarning,0825.9,5.01,000.00,024.5,023.3,000.0,032.9,026.2,019.0,0000.0,0003.73,0003.01,0002.64
2024-05-14 06:10:00,SystemResetWarning,0825.9,5.00,000.00,024.6,023.5,000.0,032.8,026.3,019.1,0000.0,0003.71,0002.98,0002.60
2024-05-14 06:11:00,SystemResetWarning,0825.9,5.00,000.00,024.6,023.7,000.0,032.8,026.3,019.2,0000.0,0003.68,0002.93,0002.56
2024-05-14 06:12:00,SystemResetWarning,0825.9,5.00,000.00,024.7,023.9,000.0,032.8,026.4,019.4,0000.0,0003.66,0002.90,0002.52
2024-05-14 06:13:00,SystemResetWarning,0825.9,4.99,000.00,024.7,024.0,000.0,032.9,026.5,019.4,0000.0,0003.72,0002.91,0002.50
2024-05-14 06:14:00,SystemResetWarning,0825.9,5.00,000.00,024.8,024.1,000.0,032.9,026.6,019.1,0000.0,0003.85,0002.93,0002.49
2024-05-14 06:15:00,SystemResetWarning,0825.9,4.99,000.00,024.8,024.2,000.0,032.9,026.6,019.0,0000.0,0003.82,0002.90,0002.47
2024-05-14 06:16:00,SystemResetWarning,0825.9,4.99,000.00,024.9,024.3,000.0,032.9,026.7,019.0,0000.0,0003.94,0002.89,0002.46
2024-05-14 06:17:00,SystemResetWarning,0825.9,5.00,000.00,024.9,024.4,000.0,032.9,026.8,018.8,0000.0,0003.98,0002.90,0002.44
2024-05-14 06:18:00,SystemResetWarning,0825.9,4.99,000.00,025.0,024.5,000.0,033.0,026.8,018.8,0000.0,0004.04,0002.87,0002.41
2024-05-14 06:19:00,SystemResetWarning,0825.9,5.01,000.00,025.0,024.5,000.0,033.0,026.8,018.6,0000.0,0003.91,0002.78,0002.37
2024-05-14 06:20:00,SystemResetWarning,0825.9,5.01,000.00,025.1,024.6,000.0,033.0,026.9,018.4,0000.0,0003.90,0002.76,0002.36
2024-05-14 06:21:00,SystemResetWarning,0825.9,5.00,000.00,025.1,024.7,000.0,033.1,026.9,018.4,0000.0,0003.87,0002.74,0002.36
2024-05-14 06:22:00,SystemResetWarning,0825.9,5.00,000.00,025.2,024.7,000.0,033.1,027.0,018.2,0000.0,0003.83,0002.75,0002.36
2024-05-14 06:23:00,SystemResetWarning,0825.9,5.00,000.00,025.2,024.8,000.0,033.1,027.0,017.8,0000.0,0003.86,0002.76,0002.34
2024-05-14 06:24:00,SystemResetWarning,0825.9,5.00,000.00,025.2,024.8,000.0,033.2,027.0,018.0,0000.0,0004.02,0002.79,0002.34
2024-05-14 06:25:00,SystemResetWarning,0825.9,5.00,000.00,025.3,024.8,000.0,033.2,027.1,017.6,0000.0,0003.95,0002.78,0002.33
2024-05-14 06:26:00,SystemResetWarning,0825.9,4.99,000.00,025.3,024.4,000.0,033.3,026.8,017.6,0000.0,0004.08,0002.80,0002.31
2024-05-14 06:27:00,SystemResetWarning,0825.8,5.01,000.00,024.9,022.3,000.0,033.3,025.7,018.0,0000.0,0003.96,0002.79,0002.30
2024-05-14 06:28:00,SystemResetWarning,0825.8,5.02,000.00,024.6,021.8,000.0,033.3,025.4,018.6,0000.0,0003.93,0002.78,0002.29
2024-05-14 06:29:00,SystemResetWarning,0825.8,4.99,000.00,024.5,022.1,000.0,033.2,025.5,018.9,0000.0,0003.84,0002.78,0002.30
2024-05-14 06:30:00,SystemResetWarning,0825.9,4.99,000.00,024.5,022.4,000.0,033.1,025.7,018.8,0000.0,0003.84,0002.81,0002.32
2024-05-14 06:31:00,SystemResetWarning,0826.0,5.00,000.00,024.5,022.8,000.0,033.0,026.0,018.8,0000.0,0003.83,0002.82,0002.32
2024-05-14 06:32:00,SystemResetWarning,0825.9,5.01,000.00,024.5,023.1,000.0,032.9,026.1,018.9,0000.0,0003.88,0002.85,0002.33
2024-05-14 06:33:00,SystemResetWarning,0825.9,5.00,000.00,024.6,023.3,000.0,032.9,026.2,018.6,0000.0,0003.88,0002.84,0002.34
2024-05-14 06:34:00,SystemResetWarning,0825.9,4.99,000.00,024.6,023.5,000.0,032.9,026.3,018.6,0000.0,0003.95,0002.82,0002.36
2024-05-14 06:35:00,SystemResetWarning,0826.0,4.99,000.00,024.6,023.7,000.0,032.9,026.4,018.2,0000.0,0003.75,0002.78,0002.36
2024-05-14 06:36:00,SystemResetWarning,0825.9,4.99,000.00,024.7,023.9,000.0,032.9,026.5,018.4,0000.0,0003.72,0002.77,0002.37
2024-05-14 06:37:00,SystemResetWarning,0825.9,5.01,000.00,024.7,024.0,000.0,032.9,026.5,018.4,0000.0,0003.59,0002.73,0002.37
2024-05-14 06:38:00,SystemResetWarning,0825.8,5.00,000.00,024.8,024.1,000.0,032.9,026.6,018.3,0000.0,0003.82,0002.79,0002.40
2024-05-14 06:39:00,SystemResetWarning,0825.8,5.01,000.00,024.8,024.2,000.0,032.9,026.6,018.2,0000.0,0003.79,0002.78,0002.41
2024-05-14 06:40:00,SystemResetWarning,0825.8,5.00,000.00,024.9,024.3,000.0,033.0,026.7,018.1,0000.0,0003.96,0002.85,0002.42
2024-05-14 06:41:00,SystemResetWarning,0825.8,5.00,000.00,024.9,024.4,000.0,033.0,026.7,018.2,0000.0,0005.33,0002.87,0002.43
2024-05-14 06:42:00,SystemResetWarning,0825.8,4.99,000.00,025.0,024.5,000.0,033.0,026.8,018.3,0000.0,0005.38,0002.85,0002.44
2024-05-14 06:43:00,SystemResetWarning,0825.8,5.00,000.00,025.0,024.5,000.0,033.0,026.8,018.3,0000.0,0005.34,0002.83,0002.44
2024-05-14 06:44:00,SystemResetWarning,0825.8,5.00,000.00,025.1,024.6,000.0,033.1,026.9,018.4,0000.0,0005.43,0002.88,0002.44
2024-05-14 06:45:00,SystemResetWarning,0825.8,5.01,000.00,025.1,024.7,000.0,033.1,026.9,018.3,0000.0,0005.37,0002.91,0002.44
2024-05-14 06:46:00,SystemResetWarning,0825.7,5.00,000.00,025.2,024.7,000.0,033.1,027.0,018.2,0000.0,0005.41,0002.93,0002.46
2024-05-14 06:47:00,SystemResetWarning,0825.7,5.00,000.00,025.2,024.8,000.0,033.2,027.0,018.4,0000.0,0005.46,0002.96,0002.48
2024-05-14 06:48:00,SystemResetWarning,0825.7,5.00,000.00,025.2,024.8,000.0,033.2,027.1,018.6,0000.0,0005.61,0003.01,0002.51
2024-05-14 06:49:00,SystemResetWarning,0825.8,4.99,000.00,025.3,024.8,000.0,033.3,027.1,018.3,0000.0,0005.44,0002.98,0002.52
2024-05-14 06:50:00,SystemResetWarning,0825.8,4.99,000.00,025.3,024.9,000.0,033.3,027.2,018.3,0000.0,0005.51,0003.03,0002.55
2024-05-14 06:51:00,SystemResetWarning,0825.8,5.01,000.00,025.3,024.9,000.0,033.3,027.2,017.9,0000.0,0005.60,0003.03,0002.57
2024-05-14 06:52:00,SystemResetWarning,0825.8,4.99,000.00,025.2,023.6,000.0,033.4,026.5,018.2,0000.0,0004.53,0003.06,0002.59
2024-05-14 06:53:00,SystemResetWarning,0825.8,5.01,000.00,024.8,021.8,000.0,033.4,025.5,018.6,0000.0,0004.41,0003.10,0002.62
2024-05-14 06:54:00,SystemResetWarning,0825.9,5.00,000.00,024.6,021.9,000.0,033.4,025.5,019.1,0000.0,0004.45,0003.12,0002.65
2024-05-14 06:55:00,SystemResetWarning,0825.9,4.99,000.00,024.5,022.2,000.0,033.2,025.6,019.3,0000.0,0004.69,0003.13,0002.68
2024-05-14 06:56:00,SystemResetWarning,0825.9,5.00,000.00,024.5,022.6,000.0,033.1,025.8,019.1,0000.0,0005.68,0003.13,0002.71
2024-05-14 06:57:00,SystemResetWarning,0825.9,5.01,000.00,024.5,022.9,000.0,033.0,026.0,018.9,0000.0,0005.79,0003.16,0002.73
2024-05-14 06:58:00,SystemResetWarning,0825.9,5.00,000.00,024.6,023.2,000.0,033.0,026.2,018.9,0000.0,0006.13,0003.16,0002.74
2024-05-14 06:59:00,SystemResetWarning,0825.9,4.99,000.00,024.6,023.5,000.0,033.0,026.3,019.1,0000.0,0007.09,0003.16,0002.74
